Weather History for Upington, South Africa

Change the Weather History Date:

Wednesday, December 19, 2012

  Actual Average Record
Temperature  
Mean Temperature 84 °F -  
Max Temperature 99 °F 93 °F 102 °F (2004)
Min Temperature 68 °F 65 °F 59 °F (2001)
Cooling Degree Days 18    
Growing Degree Days 34 (Base 50)    
Moisture  
Dew Point 53 °F    
Average Humidity 36    
Maximum Humidity 78    
Minimum Humidity 13    
Precipitation  
Precipitation 0.04 in 0.03 in - ()
Sea Level Pressure  
Sea Level Pressure 29.91 in    
Wind  
Wind Speed 9 mph ()    
Max Wind Speed 32 mph    
Max Gust Speed 46 mph    
Visibility 7.2 miles    
Events Rain , Thunderstorm    
Averages and records for this station are not official NWS values.
T = Trace of Precipitation, MM = Missing Value Source: Averaged Metar Reports

Daily Weather History Graph

Daily Weather History Graph

Search for Another Location

Airport:

Trip Planner

Search our weather history database for the weather conditions in past years. The results will help you decide how hot, cold, wet, or windy it might be!

Date:

Astronomy

Dec. 19, 2012 Rise Set
Actual Time 5:33 AM SAST 7:30 PM SAST
Civil Twilight 5:06 AM SAST 7:57 PM SAST
Nautical Twilight 4:34 AM SAST 8:30 PM SAST
Astronomical Twilight 3:59 AM SAST 9:04 PM SAST
Moon 11:51 AM SAST (12/19) No Moon Set
Length of Visible Light 14h 51m
Length of Day
13h 57m
Waxing Crescent, 42% of the Moon is Illuminated
Dec 19
Waxing Crescent
Dec 20
First Quarter
Dec 28
Full
Jan 5
Last Quarter
Jan 11
New

Hourly Weather History & Observations

Time (SAST) Temp. Heat Index Dew Point Humidity Pressure Visibility Wind Dir Wind Speed Gust Speed Precip Events Conditions
12:00 AM 82.4 °F - 48.2 °F 30% 29.92 in - NW 8.1 mph - N/A   Unknown
1:00 AM 82.4 °F - 50.0 °F 32% 29.95 in 6.2 mi North 11.5 mph - N/A   Mostly Cloudy
2:00 AM 82 °F - 51 °F 23%  in 25 mi West 6.9 mph - -   Scattered Clouds
2:00 AM 80.6 °F - 50.0 °F 34% 29.95 in 6.2 mi West 5.8 mph - N/A   Mostly Cloudy
3:00 AM 78.8 °F - 51.8 °F 39% 29.92 in 6.2 mi NNW 5.8 mph - N/A   Mostly Cloudy
4:00 AM 78.8 °F - 51.8 °F 39% 29.89 in 6.2 mi South 3.5 mph - N/A   Mostly Cloudy
5:00 AM 79 °F - 52 °F 29%  in 25 mi North 3.5 mph - -   Scattered Clouds
5:00 AM 78.8 °F - 51.8 °F 39% 29.92 in 6.2 mi North 3.5 mph - N/A   Mostly Cloudy
6:00 AM 75.2 °F - 53.6 °F 47% 29.95 in - NE 4.6 mph - N/A   Clear
6:43 AM 78.8 °F - 51.8 °F 39% 29.95 in - NNE 6.9 mph - N/A   Clear
7:00 AM 78.8 °F - 51.8 °F 39% 29.95 in - NNE 8.1 mph - N/A   Clear
8:00 AM 83 °F - 54 °F 27%  in 25 mi NNE 13.8 mph - -   Scattered Clouds
8:00 AM 82.4 °F 81.4 °F 53.6 °F 37% 29.98 in - NNE 12.7 mph - N/A   Clear
9:00 AM 87.8 °F - 51.8 °F 29% 29.98 in - North 13.8 mph - N/A   Clear
10:00 AM 87.8 °F - 50.0 °F 27% 29.95 in - NNW 13.8 mph - N/A   Clear
10:40 AM 93.2 °F - 50.0 °F 23% 29.98 in - NNW 13.8 mph - N/A   Clear
11:00 AM 94 °F - 51 °F 14%  in 25 mi NNW 15.0 mph - -   Scattered Clouds
11:00 AM 93.2 °F - 50.0 °F 23% 29.95 in 6.2 mi NNW 13.8 mph - N/A   Partly Cloudy
12:00 PM 96.8 °F - 50.0 °F 20% 29.92 in 6.2 mi NNW 13.8 mph - N/A   Partly Cloudy
1:00 PM 95.0 °F - 50.0 °F 22% 29.92 in 6.2 mi NNW 13.8 mph 33.4 mph N/A   Partly Cloudy
1:42 PM 98.6 °F - 51.8 °F 21% 29.89 in 6.2 mi WNW 10.4 mph 23.0 mph N/A   Partly Cloudy
2:00 PM 97 °F - 51 °F 13%  in 25 mi NNW 13.8 mph - -   Partly Cloudy
2:00 PM 96.8 °F - 50.0 °F 20% 29.89 in 6.2 mi NNW 13.8 mph - N/A   Partly Cloudy
3:00 PM 96.8 °F - 48.2 °F 19% 29.83 in 6.2 mi NNW 9.2 mph - N/A   Partly Cloudy
4:00 PM 95.0 °F - 50.0 °F 22% 29.80 in 6.2 mi NW 11.5 mph - N/A   Mostly Cloudy
4:18 PM 91.4 °F - 48.2 °F 23% 29.80 in 6.2 mi NNW 9.2 mph - N/A Thunderstorm Thunderstorm
4:31 PM 89.6 °F 87.7 °F 55.4 °F 31% 29.80 in 6.2 mi NW 13.8 mph - N/A Rain , Thunderstorm Thunderstorms and Rain
5:00 PM 83 °F - 61 °F 37%  in 19 mi NW 11.5 mph - - Thunderstorm Thunderstorm
5:00 PM 82.4 °F 82.9 °F 60.8 °F 48% 29.80 in 6.2 mi NW 11.5 mph - N/A Thunderstorm Thunderstorm
5:40 PM 77.0 °F - 55.4 °F 47% 29.86 in 4.3 mi WNW 32.2 mph 46.0 mph N/A Rain , Thunderstorm Thunderstorms and Rain
6:00 PM 75.2 °F - 53.6 °F 47% 29.86 in 4.3 mi WNW 31.1 mph 43.7 mph N/A Rain , Thunderstorm Thunderstorms and Rain
7:00 PM 82.4 °F - 50.0 °F 32% 29.89 in 6.2 mi SSE 6.9 mph 26.5 mph N/A Thunderstorm Thunderstorm
8:00 PM 73 °F - 56 °F 46%  in 19 mi SSE 19.6 mph - -   Scattered Clouds
8:00 PM 73.4 °F - 55.4 °F 53% 29.92 in 6.2 mi SSE 18.4 mph - N/A   Mostly Cloudy
9:00 PM 69.8 °F - 60.8 °F 73% 30.04 in - SW 13.8 mph - N/A   Unknown
10:00 PM 68.0 °F - 60.8 °F 78% 29.95 in - NE 12.7 mph - N/A   Unknown
11:00 PM 70 °F - 60 °F 62%  in - NNE 5.8 mph - -  
11:00 PM 68.0 °F - 59.0 °F 73% 29.92 in - NNE 4.6 mph - N/A   Unknown